This is the latest recevied weather packets stored in our database for station/object K6MBY. If no packets are shown the sender has not sent any weather packets the latest 10 day(s).
| Time | Temp. | Humidity | Pressure | Rain* | Wind** | Luminosity | Snow |
|---|---|---|---|---|---|---|---|
| 1777848255 | 23.89° C | 41% | 1015.4 hPa | 0 mm | - | 642 W/m² | - |
| 1777847952 | 23.33° C | 40% | 1015.6 hPa | 0 mm | - | 653 W/m² | - |
| 1777847650 | 22.78° C | 47% | 1015.7 hPa | 0 mm | - | 666 W/m² | - |
| 1777847350 | 21.67° C | 48% | 1015.7 hPa | 0 mm | - | 673 W/m² | - |
| 1777847049 | 22.22° C | 49% | 1015.8 hPa | 0 mm | - | 678 W/m² | - |
| 1777846747 | 22.22° C | 50% | 1015.9 hPa | 0 mm | - | 674 W/m² | - |
| 1777846445 | 22.78° C | 48% | 1016 hPa | 0 mm | - | 683 W/m² | - |
| 1777846141 | 22.22° C | 48% | 1015.9 hPa | 0 mm | - | 695 W/m² | - |
| 1777845838 | 21.67° C | 49% | 1016.1 hPa | 0 mm | - | 707 W/m² | - |
| 1777845535 | 21.67° C | 49% | 1016.2 hPa | 0 mm | - | 722 W/m² | - |
| 1777845232 | 21.67° C | 48% | 1016.2 hPa | 0 mm | - | 740 W/m² | - |
| 1777844929 | 21.67° C | 49% | 1016.3 hPa | 0 mm | - | 746 W/m² | - |
| 1777844627 | 21.67° C | 49% | 1016.3 hPa | 0 mm | - | 741 W/m² | - |
| 1777844324 | 21.67° C | 50% | 1016.4 hPa | 0 mm | - | 759 W/m² | - |
| 1777844022 | 21.11° C | 51% | 1016.5 hPa | 0 mm | - | 765 W/m² | - |
| 1777843718 | 21.11° C | 51% | 1016.5 hPa | 0 mm | - | 774 W/m² | - |
| 1777843416 | 21.11° C | 50% | 1016.5 hPa | 0 mm | - | 783 W/m² | - |
| 1777843113 | 20.56° C | 52% | 1016.5 hPa | 0 mm | - | 777 W/m² | - |
| 1777842810 | 20.56° C | 50% | 1016.6 hPa | 0 mm | - | 794 W/m² | - |
| 1777842505 | 20.56° C | 55% | 1016.6 hPa | 0 mm | - | 785 W/m² | - |
| 1777842203 | 20.56° C | 55% | 1016.6 hPa | 0 mm | - | 787 W/m² | - |
| 1777841897 | 20.56° C | 54% | 1016.8 hPa | 0 mm | - | 815 W/m² | - |
| 1777841594 | 20.56° C | 50% | 1016.6 hPa | 0 mm | - | 821 W/m² | - |
| 1777841291 | 20.56° C | 52% | 1016.9 hPa | 0 mm | - | 830 W/m² | - |
| 1777840989 | 21.11° C | 49% | 1016.8 hPa | 0 mm | - | 836 W/m² | - |
* Rain latest hour (hover to see other rain measurements)
** Current wind speed in m/s (hover to see current wind gust speed)